World > North America > United States > Ohio > Mount Orab  

Mount Orab, OH Hourly Weather Updates

Feedback E-mail the Weather

Quick Clicks

Mount Orab, OH Weather Maps

°F °C°F °C
Mount Orab Weather Map
UTC Time: 6/19/2024, 19:54
Your Time:

Mount Orab, OH Regional Weather

Expires:202406192000;;307862
ASUS41 KCLE 191912
RWRCLE
OHIO REGIONAL WEATHER ROUNDUP
NATIONAL WEATHER SERVICE WILMINGTON, OH
300 PM EDT WED JUN 19 2024

NOTE: "FAIR" INDICATES FEW OR NO CLOUDS BELOW 12,000 FEET WITH NO
SIGNIFICANT WEATHER AND/OR OBSTRUCTIONS TO VISIBILITY.


OHZ042-051>053-060>062-070>072-077>081-192000-
  SOUTHWEST OHIO
  
CITY           SKY/WX    TMP DP  RH WIND       PRES   REMARKS
CINC-COVINGTON CLOUDY    87  73  62 SW5       30.25F HX  94           
CINC-LUNKEN    FAIR      88  77  69 S5        30.24F HAZE    HX 100   
HAMILTON       FAIR      91  71  51 CALM      30.25F HX  97           
DAYTON         PTSUNNY   91  72  53 SW7       30.25F HX  98           
WRIGHT-PAT AFB MOSUNNY   92  68  46 SE7       30.23F HX  96           
DAYTON GENERAL FAIR      89  68  49 SE6       30.25F HX  93           
WILMINGTON     FAIR      88  70  55 SE5       30.27F HX  93           
$$


SKY/WX - Weather  TMP - Temperature  DP - Dew Point  RH - Humidity
WIND - Wind Direction/Speed PRES - Barometric Pressure VSB - Visibility
WCI - Wind Chill Index E13G22 Wind - East Wind 13 mph/Gusts of 22 mph

Trending Headlines

Trending Entertainment Headlines

Mount Orab Radar Loop

Use the map search tool if you want to place a location marker on the radar map...

Mount Orab Quick Facts

National Two Day Weather Forecast


E-mail the Mount Orab Weather Forecast

Voice your opinion or tell us about page issues...